Flag for Germany Weather past 2 weeks in Singen (Hohentwiel), Baden-Württemberg, Germany

Now
31 °F

Light snow. Ice fog.


Feels Like: 26 °F
Forecast: 12 / 29 °F
Wind: 6 mph from Southwest

Location: Konstanz

Current Time: Feb 2, 2015 at 1:33:52 AM

Latest Report: Feb 2, 2015 at 1:00 AM


Visibility: 2 mi

Pressure: 29.50 "Hg

Humidity: 90%

Dew point: 29 °F

Location of Singen (Hohentwiel)Location

Historic Weather in Singen (Hohentwiel) — Graph

°F

Singen (Hohentwiel) temperature yesterday

Maximum temperature yesterday: 36 °F (at 12:00 PM)
Minimum temperature yesterday: 30 °F (at 6:00 AM)
Average temperature yesterday: 33 °F

Past Weeks' High & Low Weather Summary

 TemperatureHumidityPressure
High39 °F (Jan 19, 2:00 PM)100% (Jan 27, 8:00 AM)30.47 "Hg (Jan 27, 8:00 AM)
Low30 °F (Jan 25, 8:00 AM)59% (Jan 31, 4:00 PM)28.88 "Hg (Jan 30, 12:00 AM)
Average34 °F86%29.86 "Hg
* Reported Midnight between Jan 17 and Jan 18 — Midnight between Feb 1 and Feb 2, Singen (Hohentwiel), Weather by CustomWeather, © 2014

Note: Actual official high and low records may vary slightly from our data, if they occured in-between our weather recording intervals... More about our weather records

Advertising

Singen (Hohentwiel) weather history for previous 24 hours

 ConditionsComfort  
Time TempWeatherWind HumidityBarometerVisibility
12:00 AM
Feb 2
32 °FLight snow. Passing clouds.5 mph81%29.50 "Hg12 mi
11:00 PM
Feb 1
32 °FLight snow. Overcast.6 mph83%29.50 "Hg11 mi
10:00 PM33 °FOvercast.5 mph79%29.50 "Hg43 mi
9:00 PM33 °FLight snow. Overcast.6 mph82%29.50 "Hg22 mi
8:00 PM33 °FOvercast.6 mph80%29.50 "Hg19 mi
7:00 PM33 °FLow clouds.6 mph82%29.47 "Hg19 mi
6:00 PM34 °FOvercast.7 mph81%29.44 "Hg11 mi
5:00 PM33 °FLight snow. Low clouds.6 mph87%29.41 "Hg4 mi
4:00 PM33 °FLight snow. Low clouds.6 mph89%29.41 "Hg5 mi
3:00 PM32 °FLight snow. Low clouds.5 mph90%29.38 "Hg6 mi
2:00 PM34 °FLight snow. Overcast.6 mph77%29.38 "Hg3 mi
1:00 PM36 °FPartly sunny.6 mph67%29.35 "Hg22 mi
12:00 PM36 °FPartly sunny.6 mph67%29.35 "Hg25 mi
11:00 AM34 °FOvercast.5 mph76%29.35 "Hg25 mi
10:00 AM33 °FPartly sunny.3 mph76%29.32 "Hg25 mi
9:00 AM31 °FPartly sunny.5 mph83%29.32 "Hg22 mi
8:00 AM32 °FSnow flurries. Overcast.3 mph85%29.29 "Hg6 mi
7:00 AM32 °FLight snow. Overcast.6 mph89%29.26 "Hg19 mi
6:00 AM30 °FLight snow. Ice fog.2 mph96%29.26 "Hg1 mi
5:00 AM31 °FPassing clouds.3 mph89%29.23 "Hg18 mi
4:00 AM31 °FOvercast.1 mph91%29.23 "Hg15 mi
3:00 AM32 °FOvercast.2 mph89%29.23 "Hg19 mi
2:00 AM31 °FPassing clouds.2 mph90%29.26 "Hg17 mi
1:00 AM32 °FPassing clouds.3 mph89%29.23 "Hg22 mi
Weather by CustomWeather, © 2014

See weather overviewHow to use our weather pages